This is the latest recevied weather packets stored in our database for station/object JR5VPD-10. If no packets are shown the sender has not sent any weather packets the latest 10 day(s).
| Time | Temp. | Humidity | Pressure | Rain* | Wind** | Luminosity | Snow |
|---|---|---|---|---|---|---|---|
| 1787654172 | 31.67° C | 71% | 1008.1 hPa | 0 mm | 0 m/s | - | - |
| 1787652372 | 30.56° C | 74% | 1007.7 hPa | 0 mm | 0 m/s | - | - |
| 1787650572 | 31.67° C | 74% | 1007.7 hPa | 0 mm | 0 m/s | - | - |
| 1787648772 | 31.67° C | 71% | 1007.5 hPa | 0 mm | 0 m/s | - | - |
| 1787646972 | 31.67° C | 67% | 1007.6 hPa | 0 mm | 0 m/s | - | - |
| 1787645172 | 31.67° C | 67% | 1007.9 hPa | 0 mm | 0 m/s | - | - |
| 1787643372 | 31.67° C | 63% | 1008 hPa | 0 mm | 0 m/s | - | - |
| 1787641572 | 31.67° C | 63% | 1008.1 hPa | 0 mm | 0 m/s | - | - |
| 1787639772 | 31.67° C | 64% | 1008.2 hPa | 0 mm | 0 m/s | - | - |
| 1787637972 | 31.67° C | 65% | 1008.4 hPa | 0 mm | 0 m/s | - | - |
| 1787636172 | 31.67° C | 66% | 1008.7 hPa | 0 mm | 0 m/s | - | - |
| 1787634372 | 31.67° C | 69% | 1009.1 hPa | 0 mm | 0 m/s | - | - |
| 1787632572 | 31.67° C | 68% | 1009.4 hPa | 0 mm | 0 m/s | - | - |
| 1787630772 | 31.67° C | 69% | 1009.6 hPa | 0 mm | 0 m/s | - | - |
| 1787628972 | 32.78° C | 68% | 1009.9 hPa | 0 mm | 0 m/s | - | - |
| 1787627172 | 31.67° C | 67% | 1010.3 hPa | 0 mm | 0 m/s | - | - |
| 1787625372 | 31.67° C | 73% | 1010.5 hPa | 0 mm | 0 m/s | - | - |
| 1787623572 | 31.67° C | 73% | 1010.8 hPa | 0 mm | 0 m/s | - | - |
| 1787621772 | 31.67° C | 76% | 1011.2 hPa | 0 mm | 0 m/s | - | - |
| 1787619972 | 31.67° C | 77% | 1011.2 hPa | 0 mm | 0 m/s | - | - |
| 1787618172 | 31.67° C | 77% | 1011.1 hPa | 0 mm | 0 m/s | - | - |
| 1787616372 | 31.67° C | 77% | 1011.1 hPa | 0 mm | 0 m/s | - | - |
| 1787614572 | 30.56° C | 79% | 1011 hPa | 0 mm | 0 m/s | - | - |
| 1787612772 | 30.56° C | 80% | 1010.9 hPa | 0 mm | 0 m/s | - | - |
| 1787610972 | 30° C | 81% | 1010.6 hPa | 0 mm | 0 m/s | - | - |
* Rain latest hour (hover to see other rain measurements)
** Current wind speed in m/s (hover to see current wind gust speed)